Погода в Юрьевом

Россия / Новгородская область     58°02′34″N   31°35′13″E
темп.,
°C
ветер,
м/с
пор.,
м/с
влажн.,
%
обл.,
%
осадки,
мм/ч
давл.,
гПа
погр.,
м
12 мая, ср
ср1200:00+11юв39790 0.0 1024159
03:00+9юв37810 0.0 1024131
06:00+10ююв26830 0.0 1025129
09:00+17ююв34650 0.0 1024428
12:00+22юв36510 0.0 10241327
15:00+24юв474037 0.0 10222467
18:00+21ююв265910 0.0 1020288
21:00+17всв246783 0.0 101975
13 мая, чт
чт1300:00+15в31283100 0.1 1018353
03:00+15вюв4118914 0.2 1016681
06:00+13юв4109012 0.0 1017768
09:00+14ююв466424 0.0 1018786
12:00+19юв58425 0.0 10161764
15:00+18юв375297 0.0 10141298
18:00+18вюв3657100 0.1 10121192
21:00+13ю2584100 0.6 1011116
14 мая, пт
пт1400:00+11юз2592100 0.3 1010268
03:00+10ююз3897100 3.8 1011397
06:00+10ю499418 0.8 1012412
09:00+13ю47775 0.8 1013542
12:00+17ю475598 0.0 10121393
15:00+19ююв4756100 0.1 10121489
18:00+19юв3658100 0.1 10111460
21:00+15вюв2579100 0.1 1010122
15 мая, сб
сб1500:00+12в288999 0.0 1009182
03:00+12в3791100 0.0 1008195
06:00+12вюв279725 0.0 1007218
09:00+17ююв35735 0.0 1006596
12:00+21ю465559 0.0 10061634
15:00+22ююз355294 0.1 10051545
18:00+19юз017590 1.7 100458
21:00+15юз2388100 3.4 100463
16 мая, вс
вс1600:00+14юз2393100 0.8 100467
03:00+13зюз41094100 1.6 1005380
06:00+13зюз3996100 0.8 1006355
09:00+14юз4790100 1.0 1008619
12:00+13зюз4891100 0.4 1010685
15:00+14зюз4889100 0.5 1012656
18:00+18зюз366016 0.1 10121433
21:00+12зсз01791 0.1 101410